| time (UTC) | temp F | wind direction | speed knots | gust knots | rain 1hr in | rain 24hr in | rain mn in | humidity % | barometer mb |
| 20260504214502 | 71 | 194 | 1.7 | 8.7 | 0.00 | 0.00 | 0.00 | 37 | 1005.8 |
| 20260504213148 | 71 | 219 | 3.5 | 8.7 | 0.00 | 0.00 | 0.00 | 37 | 1005.8 |
| 20260504211508 | 72 | 202 | 2.6 | 9.6 | 0.00 | 0.00 | 0.00 | 38 | 1005.9 |
| 20260504204502 | 72 | 194 | 1.7 | 9.6 | 0.00 | 0.00 | 0.00 | 39 | 1005.9 |
| 20260504203123 | 72 | 206 | 1.7 | 9.6 | 0.00 | 0.00 | 0.00 | 37 | 1005.9 |
| 20260504201504 | 73 | 281 | 1.7 | 10.4 | 0.00 | 0.00 | 0.00 | 37 | 1006.1 |
| 20260504194502 | 72 | 178 | 2.6 | 10.4 | 0.00 | 0.00 | 0.00 | 38 | 1006.3 |
| 20260504193112 | 71 | 241 | 3.5 | 10.4 | 0.00 | 0.00 | 0.00 | 36 | 1006.4 |
| 20260504191502 | 71 | 301 | 2.6 | 8.7 | 0.00 | 0.00 | 0.00 | 38 | 1006.5 |
| 20260504190120 | 71 | 284 | 2.6 | 11.3 | 0.00 | 0.00 | 0.00 | 39 | 1006.8 |
| 20260504184504 | 70 | 175 | 2.6 | 13.0 | 0.00 | 0.00 | 0.00 | 36 | 1006.9 |
| 20260504183101 | 70 | 189 | 4.3 | 12.2 | 0.00 | 0.00 | 0.00 | 37 | 1007.1 |
| 20260504181503 | 70 | 132 | 2.6 | 13.0 | 0.00 | 0.00 | 0.00 | 39 | 1007.2 |
| 20260504174502 | 69 | 167 | 4.3 | 14.8 | 0.00 | 0.00 | 0.00 | 37 | 1007.8 |
| 20260504173002 | 69 | 192 | 3.5 | 9.6 | 0.00 | 0.00 | 0.00 | 36 | 1008.1 |
| 20260504171502 | 69 | 196 | 2.6 | 10.4 | 0.00 | 0.00 | 0.00 | 38 | 1008.3 |
| 20260504140112 | 59 | 355 | 1.7 | 5.2 | 0.00 | 0.00 | 0.00 | 56 | 1010.1 |
| 20260504110120 | 39 | 207 | 0.0 | 0.0 | 0.00 | 0.00 | 0.00 | 80 | 1011.3 |
| 20260504081602 | 39 | 208 | 0.0 | 0.0 | 0.00 | 0.00 | 0.00 | 77 | 1011.1 |
| 20260504050107 | 44 | 238 | 0.0 | 0.0 | 0.00 | 0.00 | 0.00 | 65 | 1010.9 |
| 20260504044504 | 45 | 237 | 0.0 | 0.0 | 0.00 | 0.00 | 0.00 | 60 | 1010.8 |
| 20260504043103 | 46 | 237 | 0.0 | 0.0 | 0.00 | 0.00 | 0.00 | 57 | 1010.7 |
| 20260504041502 | 46 | 237 | 0.0 | 0.0 | 0.00 | 0.00 | 0.00 | 57 | 1010.5 |
| 20260504040107 | 47 | 237 | 0.0 | 0.0 | 0.00 | 0.00 | 0.00 | 55 | 1010.4 |
| 20260504034502 | 48 | 237 | 0.0 | 0.0 | 0.00 | 0.00 | 0.00 | 53 | 1010.2 |
| 20260504033116 | 49 | 237 | 0.0 | 1.7 | 0.00 | 0.00 | 0.00 | 52 | 1010.1 |
| 20260504031502 | 49 | 234 | 0.0 | 0.0 | 0.00 | 0.00 | 0.00 | 51 | 1010.2 |
| 20260504024503 | 50 | 240 | 0.0 | 1.7 | 0.00 | 0.00 | 0.00 | 49 | 1010.1 |
| 20260504023102 | 49 | 323 | 0.0 | 2.6 | 0.00 | 0.00 | 0.00 | 50 | 1010.0 |
| 20260504021502 | 50 | 263 | 0.0 | 0.0 | 0.00 | 0.00 | 0.00 | 49 | 1010.1 |
| 20260504020103 | 51 | 263 | 0.0 | 1.7 | 0.00 | 0.00 | 0.00 | 47 | 1010.0 |
| 20260504014604 | 52 | 327 | 0.0 | 1.7 | 0.00 | 0.00 | 0.00 | 46 | 1009.9 |
| 20260504013002 | 52 | 350 | 0.0 | 1.7 | 0.00 | 0.00 | 0.00 | 46 | 1009.8 |
| 20260504011602 | 52 | 335 | 0.0 | 0.9 | 0.00 | 0.00 | 0.00 | 46 | 1009.7 |
| 20260504010002 | 53 | 338 | 0.0 | 0.0 | 0.00 | 0.00 | 0.00 | 44 | 1009.5 |
| 20260504004604 | 54 | 338 | 0.0 | 1.7 | 0.00 | 0.00 | 0.00 | 41 | 1009.4 |
| 20260504003002 | 55 | 344 | 0.0 | 1.7 | 0.00 | 0.00 | 0.00 | 40 | 1009.1 |
| 20260504001615 | 56 | 305 | 0.0 | 3.5 | 0.00 | 0.00 | 0.00 | 39 | 1008.9 |
| 20260504000003 | 57 | 355 | 1.7 | 4.3 | 0.00 | 0.00 | 0.00 | 38 | 1008.8 |
| 20260503234602 | 57 | 348 | 0.9 | 7.8 | 0.00 | 0.00 | 0.00 | 37 | 1008.7 |
| 20260503233002 | 58 | 336 | 0.9 | 3.5 | 0.00 | 0.00 | 0.00 | 36 | 1008.5 |
| 20260503231603 | 59 | 344 | 0.9 | 4.3 | 0.00 | 0.00 | 0.00 | 35 | 1008.5 |
| 20260503230002 | 59 | 321 | 1.7 | 7.8 | 0.00 | 0.00 | 0.00 | 34 | 1008.5 |
| 20260503224604 | 60 | 355 | 3.5 | 9.6 | 0.00 | 0.00 | 0.00 | 33 | 1008.5 |
| 20260503223003 | 60 | 342 | 3.5 | 11.3 | 0.00 | 0.00 | 0.00 | 32 | 1008.4 |
| 20260503221602 | 60 | 348 | 7.0 | 13.0 | 0.00 | 0.00 | 0.00 | 32 | 1008.3 |
| 20260503220004 | 60 | 355 | 3.5 | 10.4 | 0.00 | 0.00 | 0.00 | 32 | 1008.3 |